Regional Weather Roundup
Issued by NWS Charleston, SC

Current Version | Previous Version | Graphics & Text | Print | Product List | Glossary On
Versions: 1 2 3 4 5 6 7 8 9 10 11 12 13 14 15 16 17 18 19 20 21 22 23 24 25 26 27 28 29 30 31 32 33 34 35 36 37 38 39 40 41 42 43 44 45 46 47 48 49 50
000
ASUS42 KCHS 221612
RWRCHS

Regional Weather Roundup
National Weather Service Charleston SC
1200 PM EDT TUE MAY 22 2018

NOTE: "fair" indicates few or no clouds below 12,000 feet with no
significant weather and/or obstructions to visibility.

Not all stations are quality controlled. Use data with caution,
especially dewpoint observations.

SCZ027-030-031-034>040-042>050-221700-
...Southeast South Carolina...

CITY           SKY/WX    TMP DP  RH WIND       PRES   REMARKS
N Charleston   PTSUNNY   83  69  62 S15G23    30.15S
Waterfront Prk   N/A     79  72  79 S9        30.00S
Mount Pleasant FAIR      82  72  69 S14       30.16S
Johns Island   CLOUDY    82  72  69 S13       30.16S
Pinopolis        N/A     82  72  69 CALM      30.08F
Moncks Corner  HVY RAIN  77  66  69 SE10      30.16R
Summerville    PTSUNNY   79  68  69 SW5       30.16S
Beaufort MCAS  PTSUNNY   81  74  79 S7        30.15S
Beaufort Arpt  PTSUNNY   77  72  83 CALM      30.15S FOG
Hilton Head Is PTSUNNY   81  70  69 S12       30.16S
Walterboro     CLOUDY    73  68  83 S10       30.17R
Allendale      CLOUDY    77  70  78 SE9       30.14R

...Southern Midlands and Pee Dee...

CITY           SKY/WX    TMP DP  RH WIND       PRES   REMARKS
Georgetown     FAIR      81  70  69 S10G18    30.17F
Kingstree      PTSUNNY   79  68  69 E5        30.16S
Orangeburg     FAIR      80  68  66 SW5       30.14F
Barnwell       FAIR      75  70  83 SE7       30.14S
Aiken          PTSUNNY   73  70  88 S5        30.19S
Manning        FAIR      77  64  65 S6        30.15S
Columbia       PTSUNNY   82  69  64 VRB6      30.14S
Sumter         PTSUNNY   83  66  55 S8        30.13S
Florence       PTSUNNY   81  67  62 W5        30.16S
Myrtle Beach   FAIR      79  71  76 S9        30.18S
N Myrtle Beach FAIR      78  72  81 S12       30.17S

$$

GAZ063-065-086>088-099>101-113>116-118-119-134>141-150-221700-
...Southeast Georgia...

CITY           SKY/WX    TMP DP  RH WIND       PRES   REMARKS
Savannah Arpt  PTSUNNY   81  74  79 SE10      30.14F
Hunter AAF     FAIR      77  72  83 S6        30.12
Fort Stewart   FAIR      81  71  70 E12       30.11F
Statesboro     LGT RAIN  75  71  87 S6        30.13F
Sylvania       CLOUDY    73  72  96 SE5       30.15F
Claxton        PTSUNNY   84  71  65 S6        30.12F HX  90

...CSRA, Central and far Southeast Georgia...

CITY           SKY/WX    TMP DP  RH WIND       PRES   REMARKS
Thomson        PTSUNNY   82  69  64 SW7       30.17F
Augusta-Bush   CLOUDY    81  67  62 SW8       30.12F
Augusta-Daniel FAIR      79  72  79 VRB6      30.14F
Swainsboro     FAIR      81  72  74 S10       30.14S
Vidalia        PTSUNNY   82  68  61 SW8G16    30.12F
Eastman        CLOUDY    83  62  49 S7        30.14S
Hazlehurst       N/A     82  66  59 S5        30.11S
Alma           PTSUNNY   82  69  64 S9        30.11F
Waycross       CLOUDY    76  73  90 S5        30.12S
Jesup          NOT AVBL
Baxley         FAIR      81  72  74 S7        30.11F
Brunswick      CLOUDY    79  70  73 SE10G17   30.14S THUNDER
Saint Simons   FAIR      81  72  74 SE15G21   30.14R

$$

SCZ027-028-034-036>038-045-046-048>050-GAZ119-141-221700-
...Lake and Supplemental Coastal Observations...

STATION/POSITION TIME  TEMP    WIND        PRES    WAVE   SWELL
                       AIR SEA DIR/SP/G            HT/PER HT/PER/DIR
                 (UTC) (F)     (DEG/KT/KT) (MB)    (FT/S) (FT/S/D)
Winyah Bay       1445   80     190/  8     1022.0
Lake Murray      1520   77     250/  4/  6 1020.0
ACE Basin NERRS  1445   80     150/  3     1021.0
Fort Pulaski     1536   77 78  160/  8/ 11 1021.3R
Sapelo Island    1500   73     140/  5     1021.0

$$

ANZ835-935-AMZ111-154-330-350-352-354-370-450-454-472-221700-
...C-MAN and Buoy Observations...

STATION/POSITION TIME  TEMP    WIND        PRES    WAVE   SWELL
                       AIR SEA DIR/SP/G            HT/PER HT/PER/DIR
                 (UTC) (F)     (DEG/KT/KT) (MB)    (FT/S) (FT/S/D)
Buoy 41004       1550      76  160/  6/  8 1021.6F   4/ 9   3/140/ 9
Buoy 41008       1550   73 75  150/ 12/ 16 1020.7F   4/ 9   3/110/ 9
Folly Beach CMAN 1500   77     160/  9/ 10 1022.0S
Capers Nearshore 1508   77 77  160/  6/ 10 1022.3S
Fripp Nearshore  1508   77 77  150/ 10/ 12 1020.8S


STATION/POSITION TIME  TEMP    WIND        PRES    WAVE   SWELL
                       AIR SEA DIR/SP/G            HT/PER HT/PER/DIR
                 (UTC) (F)     (DEG/KT/KT) (MB)    (FT/S) (FT/S/D)
5E St. Marys GA  1530      75                N/A     3/ 9
Frying Pan Buoy  1550   77 76  180/  4/  6 1022.1S   4/ 8   3/130/ 8
Buoy 41025       1550   75 74  240/ 10/ 12 1021.8S   3/ 8   3/140/ 8
Cape Lookout NC  1500          210/ 11/ 13 1022.0R
Buoy 41002       1550      77  170/ 10/ 14 1022.9F   3/ 9   3/130/ 9
Buoy 41010       1550   77 77  130/ 14/ 16 1021.9R   5/ 8   3/110/ 8
St Augustine FL  1600   76 77  140/ 11/ 11 1020.6F


$$




USA.gov is the U.S. government's official web portal to all federal, state and local government web resources and services.